Lid_Strength_Index
4 4 4 4 4 4 4 4 4 4 4 3 3 3 3 3 3 4 7 5 3 -3 -1 2 3 2 2 4 3 4 12 13 10 10 8 5 7 5 4 5 4 4 4 3 1
4 4 4 4 4 4 4 4 4 4 4 4 3 3 3 3 4 6 -0 -2 -1 -3 2 2 5 4 5 5 4 8 12 12 9 7 8 6 6 6 6 6 5 4 3 2 2
4 4 4 5 5 4 4 4 4 4 4 4 4 4 3 3 4 4 -3 -3 -1 -0 2 1 4 4 6 5 6 7 12 9 8 7 5 6 7 5 6 7 5 6 4 3 2
5 5 4 4 5 5 4 4 4 4 4 4 4 4 3 4 7 1 -3 -3 -2 5 3 3 4 5 6 7 5 8 6 7 6 5 6 7 6 6 6 5 4 3 3 3 3
5 5 5 5 5 5 4 4 4 4 4 4 4 4 4 5 6 -0 -2 -2 4 6 4 4 5 6 7 6 6 7 7 6 5 6 6 5 7 6 6 4 3 3 3 3 3
5 5 5 5 5 5 5 4 4 4 4 4 4 4 5 7 3 0 1 2 4 5 4 3 4 4 6 6 8 6 6 6 6 6 6 7 7 6 5 3 4 3 4 3 3
5 5 5 5 5 5 5 5 4 4 4 3 3 4 5 5 3 0 2 4 3 3 4 3 3 5 6 7 5 6 8 7 7 7 8 7 9 9 5 4 4 4 4 3 3
4 5 5 5 5 5 5 5 4 4 3 3 3 3 5 3 1 0 1 3 3 1 3 3 4 6 6 4 6 8 8 12 8 7 7 7 13 7 5 5 5 4 4 3 3
4 5 5 5 5 5 5 5 4 3 2 2 3 4 5 3 4 0 1 2 2 1 2 3 4 6 6 7 9 9 13 11 11 7 8 8 12 7 6 6 6 5 4 4 3
5 5 5 4 4 4 4 4 2 2 2 1 2 4 3 5 3 1 1 1 2 2 4 6 7 8 6 8 13 12 11 11 12 9 9 10 10 7 6 6 7 5 4 4 4
5 5 4 4 4 4 4 1 3 4 2 4 5 4 4 3 1 2 1 2 2 4 7 7 9 10 8 7 7 9 10 11 11 9 9 10 10 9 7 7 7 5 5 5 4
5 4 4 4 4 4 3 3 3 2 5 3 3 3 2 1 4 4 2 4 5 7 6 7 10 7 6 6 7 8 9 10 10 10 9 10 11 8 7 7 7 7 7 6 5
4 4 4 4 4 4 2 2 1 1 5 4 3 3 3 2 4 4 3 4 6 7 7 7 8 7 6 7 9 8 9 11 12 11 10 10 13 11 8 7 7 6 6 5 5
4 4 4 4 5 1 2 0 0 -0 8 6 5 3 3 3 5 2 2 3 5 7 6 6 6 7 8 7 8 9 7 10 12 14 17 10 18 13 10 9 8 7 6 6 5
4 4 4 5 3 3 2 0 -0 2 16 6 5 2 3 5 4 4 2 3 6 6 6 7 7 7 7 7 6 8 7 8 9 12 14 13 16 14 11 11 9 7 6 5 5
4 4 4 3 3 2 0 -0 1 10 16 7 5 5 5 5 4 4 4 3 3 5 5 6 4 5 6 6 6 6 7 8 10 13 18 13 13 16 13 11 9 7 6 5 4
4 5 4 2 2 -0 -0 2 9 14 6 8 7 6 6 6 6 5 6 6 7 9 8 7 6 5 5 7 6 7 8 13 14 16 16 10 12 13 10 8 8 7 6 5 4
5 6 4 2 1 -1 1 5 16 9 8 6 6 6 8 7 6 6 6 8 6 6 8 9 10 7 5 6 7 8 8 12 17 15 14 9 14 12 8 6 6 6 5 4 4
6 1 2 0 -0 0 4 11 10 8 6 7 7 10 9 7 7 7 7 7 6 6 9 9 9 6 5 5 6 7 9 7 10 12 13 11 11 9 7 7 7 7 6 5 5
2 1 2 -0 -0 2 6 9 7 5 5 6 11 8 9 8 9 8 7 6 7 5 5 7 10 6 6 5 5 7 6 9 9 14 16 13 12 12 11 11 7 7 6 6 5
3 3 1 -1 1 4 8 7 6 4 4 7 7 8 8 9 7 8 9 6 6 6 5 6 8 8 6 7 8 7 8 8 8 9 13 17 14 9 10 9 9 7 6 5 5
2 6 0 -0 5 5 7 6 7 5 4 5 5 6 8 7 8 8 8 7 5 5 7 6 7 10 8 6 5 6 7 7 10 11 9 10 11 8 8 8 8 8 5 5 4
4 3 0 1 8 6 5 5 5 5 5 5 6 6 5 7 9 9 9 5 5 5 7 6 8 10 11 8 6 7 7 7 7 8 10 11 14 7 7 8 7 6 5 5 5
4 6 3 3 3 5 6 6 6 5 5 5 5 5 6 7 7 8 8 6 5 5 5 4 7 10 15 11 8 9 7 7 7 10 9 9 10 8 9 8 6 5 5 5 5
3 5 3 6 5 5 5 6 6 7 5 4 6 6 7 8 8 8 7 6 5 5 5 6 9 8 8 8 8 9 8 7 8 8 9 10 9 7 9 9 9 6 6 5 5
5 5 3 5 4 5 6 6 6 6 5 6 6 6 6 8 8 8 6 7 7 5 6 5 8 8 9 8 8 8 8 7 7 7 8 8 8 7 7 7 8 9 6 6 5
2 2 3 6 5 6 6 6 6 5 5 4 5 5 6 5 5 5 4 5 5 6 6 6 7 8 10 8 8 10 8 8 7 7 7 11 9 7 7 7 7 7 6 6 5